Weather History for Spokane Felts, WA

Change the Weather History Date:

Monday, May 12, 2014

  Actual Average Record
Temperature  
Mean Temperature 52 °F 54 °F  
Max Temperature 68 °F 67 °F 84 °F (2001)
Min Temperature 36 °F 41 °F 33 °F (2012)
Degree Days  
Heating Degree Days 13 11  
Month to date heating degree days 125 154  
Since 1 July heating degree days 6046 6009  
Cooling Degree Days 0 0  
Month to date cooling degree days 0 0  
Year to date cooling degree days 0 0  
Growing Degree Days 1 (Base 50)    
Moisture  
Dew Point 32 °F    
Average Humidity 56    
Maximum Humidity 89    
Minimum Humidity 22    
Precipitation  
Precipitation 0.00 in 0.06 in 0.24 in (2003)
Month to date precipitation 0.86 0.59  
Year to date precipitation 7.50 6.73  
Sea Level Pressure  
Sea Level Pressure 30.42 in    
Wind  
Wind Speed 2 mph (NNE)    
Max Wind Speed 10 mph    
Max Gust Speed 15 mph    
Visibility 10 miles    
Events      
T = Trace of Precipitation, MM = Missing Value Source: NWS Daily Summary

Daily Weather History Graph

Daily Weather History Graph

Search for Another Location

Airport:

Trip Planner

Search our weather history database for the weather conditions in past years. The results will help you decide how hot, cold, wet, or windy it might be!

Date:

Astronomy

May. 12, 2014 Rise Set
Actual Time 5:15 AM PDT 8:16 PM PDT
Civil Twilight 4:39 AM PDT 8:53 PM PDT
Nautical Twilight 3:52 AM PDT 9:40 PM PDT
Astronomical Twilight 2:55 AM PDT 10:37 PM PDT
Moon 6:10 PM PDT (5/12) 4:08 AM PDT (5/12)
Length of Visible Light 16h 13m
Length of Day
15h 01m
Waxing Gibbous, 95% of the Moon is Illuminated
May 12
Waxing Gibbous
May 14
Full
May 21
Last Quarter
May 28
New
Jun 5
First Quarter

Hourly Weather History & Observations

Time (PDT) Temp. Windchill Dew Point Humidity Pressure Visibility Wind Dir Wind Speed Gust Speed Precip Events Conditions
12:53 AM 41.0 °F 39.0 °F 33.1 °F 73% 30.39 in 10.0 mi NNE 3.5 mph - N/A   Clear
1:53 AM 39.9 °F 36.7 °F 33.1 °F 77% 30.40 in 10.0 mi NNE 4.6 mph - N/A   Clear
2:53 AM 39.9 °F 37.8 °F 32.0 °F 73% 30.42 in 10.0 mi ENE 3.5 mph - N/A   Clear
3:53 AM 37.9 °F 35.5 °F 33.1 °F 83% 30.44 in 10.0 mi NNE 3.5 mph - N/A   Clear
4:53 AM 36.0 °F 32.1 °F 32.0 °F 86% 30.47 in 10.0 mi NE 4.6 mph - N/A   Clear
5:53 AM 37.0 °F - 33.1 °F 86% 30.46 in 10.0 mi Calm Calm - N/A   Clear
6:53 AM 42.8 °F - 33.8 °F 70% 30.45 in 10.0 mi Calm Calm - N/A   Clear
7:53 AM 45.0 °F - 34.0 °F 65% 30.46 in 10.0 mi Calm Calm - N/A   Clear
8:53 AM 48.9 °F - 35.1 °F 59% 30.47 in 10.0 mi Calm Calm - N/A   Clear
9:53 AM 55.0 °F - 35.1 °F 47% 30.48 in 10.0 mi West 4.6 mph - N/A   Clear
10:53 AM 59.0 °F - 32.0 °F 36% 30.46 in 10.0 mi Calm Calm - N/A   Partly Cloudy
11:53 AM 61.0 °F - 30.9 °F 32% 30.45 in 10.0 mi Variable 3.5 mph - N/A   Partly Cloudy
12:53 PM 63.0 °F - 30.0 °F 29% 30.44 in 10.0 mi Calm Calm - N/A   Partly Cloudy
1:53 PM 64.9 °F - 26.1 °F 23% 30.43 in 10.0 mi Variable 3.5 mph - N/A   Partly Cloudy
2:53 PM 66.9 °F - 27.0 °F 22% 30.41 in 10.0 mi Variable 3.5 mph - N/A   Partly Cloudy
3:53 PM 64.9 °F - 28.9 °F 26% 30.40 in 10.0 mi West 4.6 mph - N/A   Clear
4:53 PM 66.9 °F - 30.0 °F 25% 30.38 in 10.0 mi NNE 4.6 mph - N/A   Clear
5:53 PM 66.9 °F - 27.0 °F 22% 30.37 in 10.0 mi Calm Calm - N/A   Clear
6:53 PM 64.9 °F - 33.1 °F 31% 30.36 in 10.0 mi Calm Calm - N/A   Clear
7:53 PM 57.2 °F - 33.8 °F 41% 30.36 in 10.0 mi North 3.5 mph - N/A   Clear
8:53 PM 51.1 °F - 35.1 °F 54% 30.38 in 10.0 mi Calm Calm - N/A   Clear
9:53 PM 48.0 °F - 37.0 °F 66% 30.38 in 10.0 mi NE 3.5 mph - N/A   Clear
10:53 PM 48.2 °F - 33.8 °F 58% 30.38 in 10.0 mi NE 4.6 mph - N/A   Clear
11:53 PM 45.0 °F 43.5 °F 37.0 °F 74% 30.38 in 10.0 mi NE 3.5 mph - N/A   Clear